Temperature
-0 -1 -1 -2 -3 -4 -5 -6 -7 -7 -8 -9 -10 -10 -11 -11 -12 -12 -12 -11 -11 -11 -11 -11 -12 -12 -12 -12 -12 -11 -10 -10 -10 -10 -9 -9 -9 -8 -8 -7 -7 -5 -4
-0 -1 -2 -2 -3 -4 -5 -6 -7 -7 -8 -9 -9 -10 -11 -11 -12 -12 -12 -11 -11 -11 -11 -12 -12 -13 -13 -12 -12 -11 -11 -10 -10 -10 -10 -9 -9 -9 -8 -8 -7 -6 -4
-0 -1 -2 -2 -3 -4 -5 -6 -6 -7 -8 -8 -9 -10 -10 -11 -11 -12 -11 -11 -11 -11 -11 -12 -12 -12 -12 -12 -12 -11 -11 -11 -10 -11 -10 -10 -10 -9 -9 -8 -7 -6 -4
-0 -1 -2 -2 -3 -4 -5 -6 -6 -7 -7 -8 -9 -9 -10 -10 -11 -11 -11 -11 -11 -11 -11 -12 -12 -12 -12 -12 -11 -11 -11 -10 -11 -11 -11 -10 -10 -10 -9 -9 -7 -6 -5
-0 -1 -2 -2 -3 -4 -5 -5 -6 -7 -7 -8 -9 -9 -9 -9 -10 -10 -10 -10 -10 -10 -11 -11 -12 -12 -12 -12 -11 -11 -10 -11 -11 -11 -11 -11 -11 -10 -10 -10 -9 -7 -4
-0 -1 -2 -2 -3 -4 -5 -5 -6 -6 -7 -8 -9 -9 -9 -9 -10 -10 -9 -9 -10 -10 -11 -11 -12 -12 -12 -12 -11 -11 -11 -11 -11 -11 -11 -11 -11 -11 -11 -10 -10 -9 -6
-0 -1 -2 -2 -3 -4 -4 -5 -5 -6 -7 -8 -8 -9 -9 -9 -10 -9 -9 -9 -10 -10 -11 -11 -12 -12 -12 -11 -11 -12 -12 -12 -12 -11 -11 -11 -11 -11 -11 -11 -10 -9 -7
-0 -1 -2 -2 -3 -4 -4 -5 -5 -6 -6 -8 -8 -9 -9 -9 -10 -9 -8 -9 -10 -10 -11 -11 -12 -12 -12 -11 -11 -12 -12 -12 -12 -12 -12 -12 -11 -11 -11 -11 -11 -9 -6
-0 -1 -2 -2 -3 -3 -4 -4 -5 -5 -6 -7 -8 -9 -9 -9 -9 -9 -8 -9 -10 -10 -11 -12 -12 -12 -12 -11 -12 -12 -12 -12 -12 -12 -12 -12 -11 -11 -11 -11 -10 -9 -7
0 -1 -2 -2 -3 -3 -4 -4 -5 -5 -6 -7 -7 -9 -9 -10 -9 -9 -9 -9 -10 -10 -11 -11 -12 -12 -11 -11 -12 -12 -12 -12 -12 -12 -12 -12 -12 -12 -11 -11 -10 -10 -9
0 -1 -2 -2 -3 -3 -4 -4 -5 -5 -5 -6 -7 -8 -9 -10 -10 -9 -9 -9 -9 -10 -11 -11 -12 -12 -11 -12 -12 -12 -12 -12 -13 -13 -13 -13 -12 -12 -11 -11 -10 -9 -8
-0 -1 -1 -2 -3 -3 -4 -4 -4 -5 -5 -5 -6 -7 -8 -9 -10 -10 -9 -9 -10 -10 -11 -11 -11 -11 -11 -12 -12 -12 -12 -13 -13 -13 -13 -13 -12 -12 -11 -10 -9 -8 -6
-0 -1 -2 -2 -3 -3 -3 -4 -4 -5 -5 -5 -6 -7 -8 -9 -10 -10 -10 -10 -10 -10 -11 -11 -11 -11 -12 -12 -12 -12 -13 -13 -13 -13 -13 -13 -12 -12 -11 -9 -8 -7 -5
0 -1 -2 -2 -3 -3 -3 -4 -4 -4 -5 -5 -6 -7 -7 -9 -10 -10 -10 -10 -10 -10 -10 -10 -11 -11 -11 -12 -12 -12 -13 -13 -13 -13 -13 -13 -12 -11 -10 -9 -7 -6 -5
-0 -1 -2 -2 -3 -3 -3 -4 -4 -5 -5 -5 -6 -7 -8 -9 -10 -10 -10 -10 -10 -10 -10 -10 -10 -11 -11 -11 -11 -12 -12 -13 -13 -13 -13 -13 -12 -11 -10 -9 -7 -6 -5
0 -1 -1 -2 -3 -3 -3 -4 -4 -4 -5 -6 -6 -7 -7 -9 -10 -10 -10 -10 -10 -10 -10 -10 -11 -11 -11 -11 -11 -11 -12 -12 -13 -13 -13 -13 -12 -12 -11 -9 -7 -6 -5
0 -0 -1 -2 -2 -3 -3 -3 -4 -4 -5 -5 -6 -7 -7 -9 -9 -10 -10 -10 -10 -10 -10 -10 -10 -11 -11 -11 -11 -11 -11 -12 -12 -12 -13 -13 -12 -12 -11 -9 -8 -6 -5
0 -0 -1 -2 -2 -3 -3 -3 -4 -4 -5 -5 -6 -7 -7 -8 -9 -9 -9 -9 -9 -9 -10 -10 -10 -10 -10 -11 -11 -11 -11 -11 -11 -12 -12 -12 -12 -12 -11 -10 -9 -7 -5
0 -0 -1 -2 -2 -3 -3 -3 -4 -4 -5 -5 -6 -6 -7 -7 -8 -8 -9 -9 -9 -9 -10 -10 -10 -10 -10 -10 -10 -10 -10 -11 -11 -11 -12 -12 -12 -11 -11 -10 -9 -8 -6
0 -0 -1 -2 -2 -3 -3 -3 -4 -4 -5 -5 -6 -6 -7 -7 -7 -8 -8 -9 -9 -10 -10 -10 -10 -10 -10 -10 -10 -10 -10 -10 -10 -11 -11 -11 -11 -11 -11 -10 -10 -9 -7
1 -0 -1 -2 -2 -3 -3 -3 -4 -4 -5 -5 -6 -6 -7 -7 -7 -8 -8 -9 -9 -9 -10 -10 -10 -10 -10 -10 -10 -10 -10 -10 -10 -10 -11 -11 -11 -11 -11 -10 -10 -9 -8
1 0 -1 -1 -2 -2 -3 -3 -4 -4 -5 -5 -6 -6 -7 -7 -8 -8 -8 -9 -9 -9 -10 -10 -9 -9 -10 -9 -9 -9 -9 -10 -10 -10 -10 -11 -11 -11 -10 -10 -10 -9 -8
1 0 -1 -1 -2 -2 -3 -3 -4 -4 -5 -5 -6 -6 -7 -7 -8 -8 -8 -8 -9 -9 -9 -9 -9 -9 -9 -9 -9 -9 -9 -9 -9 -10 -10 -10 -10 -10 -10 -10 -10 -9 -9
0 0 -0 -1 -2 -2 -3 -3 -4 -4 -5 -5 -6 -6 -7 -7 -8 -8 -8 -8 -9 -9 -9 -9 -9 -9 -9 -9 -9 -9 -9 -9 -9 -9 -10 -10 -10 -10 -10 -10 -10 -10 -9
-0 0 -0 -1 -1 -2 -2 -3 -3 -4 -4 -5 -6 -6 -7 -7 -8 -8 -8 -8 -8 -9 -9 -9 -9 -9 -9 -9 -9 -9 -9 -9 -9 -9 -10 -10 -10 -10 -10 -10 -10 -10 -10
-1 -0 -0 -1 -1 -2 -2 -3 -3 -4 -4 -5 -5 -6 -7 -7 -8 -8 -8 -8 -8 -8 -9 -9 -9 -9 -9 -9 -9 -9 -9 -9 -9 -9 -9 -10 -10 -10 -10 -10 -10 -10 -10
Wind_Speed
7 6 5 5 5 5 6 6 5 6 8 7 8 7 7 7 7 7 9 11 11 10 9 10 11 12 10 10 11 10 10 9 11 10 8 10 12 12 11 12 14 13 16
7 6 5 5 6 6 6 6 6 6 8 9 9 7 9 10 8 9 11 12 11 11 11 10 11 12 11 11 10 11 11 9 9 13 11 10 12 12 11 11 12 13 12
7 6 6 6 6 5 5 5 6 6 7 8 7 9 9 9 10 11 11 12 12 12 11 11 12 11 12 12 12 12 11 10 7 10 12 10 10 10 10 11 13 11 13
8 7 7 6 5 4 5 6 6 6 8 8 8 8 9 9 11 13 13 13 13 12 12 12 11 11 12 12 12 12 11 9 8 9 10 10 9 9 8 10 12 11 12
8 7 7 4 3 4 6 7 8 7 9 7 9 9 9 10 11 14 13 11 11 11 12 11 11 15 18 16 14 11 10 7 8 9 10 10 9 8 8 9 12 12 13
9 8 6 5 5 6 7 8 8 8 8 8 9 9 12 12 22 27 19 8 8 10 10 9 9 11 17 23 25 22 17 11 10 9 8 8 9 8 8 10 11 12 8
9 8 7 6 6 6 8 8 8 8 8 9 8 9 12 16 26 26 25 13 9 8 8 7 8 10 16 12 16 16 16 19 19 13 9 9 10 9 10 11 10 12 12
9 9 8 7 7 7 7 8 9 8 8 8 9 10 12 16 25 26 24 11 7 7 7 6 7 8 13 16 9 8 9 10 14 10 9 10 11 10 10 11 12 12 13
10 10 9 8 7 7 8 9 9 8 8 8 8 9 10 14 23 25 20 6 6 7 7 7 9 8 19 22 12 11 11 10 13 17 18 16 17 16 12 7 7 9 8
13 11 9 9 8 8 9 9 7 7 7 7 8 8 9 10 19 23 20 4 6 6 6 7 13 16 20 21 10 10 13 10 9 12 13 14 11 12 14 7 5 7 6
11 10 9 9 9 8 8 6 6 7 7 7 7 8 9 12 17 21 20 7 6 6 7 6 8 19 20 20 17 10 16 14 10 10 9 8 7 6 7 7 7 8 8
12 11 10 9 8 7 7 7 7 6 6 6 6 8 7 9 14 17 20 18 14 6 8 8 10 20 20 20 15 18 21 17 9 9 9 8 8 7 7 8 9 10 11
13 11 9 9 8 7 7 7 5 5 4 4 5 7 7 7 10 19 19 19 19 10 8 16 18 20 18 13 17 21 17 11 10 10 10 10 9 9 9 8 7 8 10
14 11 9 9 8 7 6 5 4 4 4 4 5 6 7 7 7 8 8 8 13 11 9 13 18 18 15 15 14 12 10 10 11 10 10 10 9 9 7 7 6 5 4
14 12 10 9 7 6 6 5 5 5 5 5 4 4 6 7 10 17 13 9 8 8 9 5 6 8 8 8 8 8 8 9 11 11 10 10 10 10 9 8 5 5 3
14 13 10 8 7 6 5 4 7 7 8 8 7 7 7 11 16 16 17 17 16 15 10 8 9 10 10 10 10 10 9 10 11 11 11 11 10 10 10 8 7 5 5
15 13 10 10 9 8 6 5 4 4 5 6 7 7 8 11 13 14 15 15 14 14 7 7 8 9 10 10 9 8 8 9 9 10 11 11 11 10 10 9 9 8 7
15 16 13 10 9 8 7 6 4 4 3 3 4 5 7 10 11 11 13 11 8 9 6 7 8 9 10 10 9 8 7 8 8 8 9 10 11 10 10 10 10 9 8
15 12 11 9 9 8 7 6 5 5 4 3 2 2 5 8 9 9 10 5 6 7 8 8 8 9 10 9 9 8 7 7 7 7 8 9 10 9 10 10 10 14 10
14 19 15 11 9 8 7 6 6 5 4 3 2 2 1 4 3 4 4 4 5 7 8 9 9 9 10 9 9 8 7 6 6 6 7 8 8 9 10 11 11 10 8
14 16 20 13 10 9 8 7 6 5 4 4 3 3 2 1 2 3 3 4 5 6 7 8 9 9 9 9 8 8 8 6 5 5 6 7 8 8 8 9 9 10 9
15 14 13 12 10 9 9 7 7 6 6 5 3 3 2 0 1 2 3 3 4 5 6 7 8 8 8 9 9 8 7 6 5 5 5 6 7 8 8 8 9 9 10
16 16 14 12 10 13 11 8 7 7 6 5 4 3 2 2 1 2 3 3 4 5 5 6 8 8 8 10 9 7 7 5 3 3 4 6 6 7 7 7 10 10 10
17 17 16 14 12 11 10 10 9 8 7 6 5 4 4 3 2 2 2 2 3 5 6 7 7 10 12 12 11 10 7 5 3 3 3 4 6 6 6 6 8 10 10
17 17 16 15 14 13 12 11 10 9 8 7 6 5 4 4 3 2 1 1 3 5 7 8 8 10 13 15 13 11 9 7 5 4 4 4 5 6 6 6 7 7 8
17 17 16 14 14 13 12 12 11 10 9 8 7 6 5 4 3 2 1 1 3 4 6 7 10 13 14 14 14 15 9 5 4 4 4 3 4 5 6 6 8 7 8
Wind_Direction
197 208 228 247 256 263 268 272 278 288 293 294 296 296 298 299 299 297 295 297 294 295 297 302 302 304 305 310 310 310 311 306 305 307 306 306 303 302 301 301 301 293 285
190 197 224 246 256 261 269 278 288 289 293 294 296 299 302 301 291 287 289 294 288 288 290 292 295 303 303 305 305 305 305 302 303 311 311 310 305 303 303 308 308 300 288
181 197 225 243 253 266 282 291 293 290 291 295 296 297 294 292 290 285 280 281 279 277 280 282 286 291 296 298 297 298 299 303 301 302 306 307 306 310 316 315 311 306 301
181 197 222 239 254 279 297 296 290 287 292 291 290 289 293 293 288 282 278 277 274 272 274 276 278 282 285 288 296 295 297 298 298 299 301 304 307 312 322 322 318 317 311
182 198 217 233 269 289 287 285 283 283 290 285 289 292 294 294 285 279 274 272 271 270 271 273 277 297 310 313 314 311 307 302 303 300 298 303 308 318 319 319 315 316 308
182 196 205 220 244 260 270 274 277 280 283 285 285 289 294 297 301 308 315 296 282 277 274 274 283 302 311 320 318 320 327 320 308 301 300 301 300 303 308 309 312 313 311
183 192 199 212 237 254 271 279 280 283 282 282 282 285 288 294 306 314 322 327 304 298 286 287 305 314 320 303 308 327 327 321 317 311 302 290 289 289 294 297 296 297 289
184 193 199 208 229 247 262 271 275 275 275 276 279 283 287 297 312 319 328 335 311 301 294 294 294 298 308 317 337 327 309 305 306 306 286 279 278 272 266 275 285 293 289
190 196 197 202 219 238 253 262 267 272 278 279 280 284 290 304 317 323 336 324 313 309 307 313 319 307 316 334 347 329 316 309 322 324 319 314 309 305 297 289 289 297 299
194 194 192 198 212 229 243 256 266 276 281 287 292 295 301 306 319 329 338 324 313 314 313 318 326 324 329 340 345 329 322 331 335 326 322 316 309 303 303 291 273 279 283
182 182 190 199 212 227 243 258 274 282 289 296 304 307 308 315 327 330 336 341 320 320 319 317 314 325 336 341 344 333 339 351 336 323 317 310 303 290 282 269 253 251 255
173 179 189 200 215 225 235 255 265 279 295 306 314 311 308 317 328 331 339 344 348 338 325 316 315 330 339 342 342 344 351 349 334 330 327 323 317 307 294 280 263 248 242
172 181 189 201 212 217 226 243 259 273 282 299 307 311 317 320 325 335 339 344 347 346 331 335 338 341 342 338 339 348 351 342 340 338 333 327 320 308 303 296 279 263 252
176 183 190 199 208 214 221 225 232 250 267 284 297 309 316 316 315 320 325 331 339 335 329 335 340 340 342 340 342 342 342 344 348 338 332 329 326 325 322 320 311 305 286
178 184 190 196 199 209 218 217 223 221 231 253 255 278 304 310 316 332 340 335 331 328 342 334 330 334 339 338 338 340 342 346 350 346 344 342 342 343 342 339 332 329 330
181 186 188 191 197 202 208 234 259 249 258 271 276 286 300 311 324 336 339 340 342 349 356 341 341 341 341 340 340 341 344 347 350 350 351 349 348 349 350 349 352 352 353
183 182 184 188 192 196 198 199 229 271 268 269 268 287 305 321 333 339 342 347 351 359 358 341 340 339 337 336 335 336 338 338 341 348 352 353 353 354 357 358 360 359 356
181 183 183 186 188 189 190 190 193 207 245 276 284 294 316 331 339 346 352 357 352 355 346 340 339 337 336 335 334 334 334 336 341 347 352 354 356 358 2 2 2 2 357
181 183 182 179 183 185 184 183 190 201 214 237 259 295 341 342 349 358 3 357 343 343 341 339 336 335 333 332 330 329 329 333 339 346 350 354 356 359 3 3 1 5 8
184 185 180 179 182 183 183 186 191 195 203 219 232 220 315 341 338 345 350 338 340 338 336 334 333 330 330 329 329 329 330 333 341 347 349 352 355 359 3 2 2 2 1
179 184 183 183 184 185 186 188 187 185 191 203 218 224 279 296 306 320 329 330 333 330 327 327 326 326 327 328 330 331 332 337 345 351 351 353 356 359 360 2 1 2 2
175 177 179 180 182 184 186 186 183 183 188 199 214 230 275 240 285 312 316 318 319 315 316 320 321 322 326 330 331 334 336 343 352 358 357 356 358 0 0 4 6 5 6
174 174 177 178 179 188 189 186 184 184 187 192 193 195 196 190 237 285 303 315 320 319 318 321 323 324 329 332 330 332 338 348 360 15 9 5 5 5 4 5 8 8 8
177 175 175 176 178 183 185 186 186 186 185 187 188 188 184 182 215 261 287 314 328 324 324 324 324 326 330 336 336 337 347 2 29 50 40 23 15 7 6 7 8 7 10
180 176 175 175 177 182 185 186 186 185 186 187 186 183 178 182 199 225 262 316 334 326 324 326 328 332 331 333 334 341 356 19 43 70 58 38 26 17 14 12 11 11 15
182 177 175 174 176 180 183 185 184 183 184 185 181 175 177 182 188 201 219 273 327 321 321 323 326 329 330 333 336 347 4 29 43 81 86 60 39 31 29 23 20 22 20
Height
1520 1520 1519 1517 1515 1512 1509 1505 1502 1498 1495 1490 1486 1482 1478 1473 1469 1465 1460 1456 1452 1447 1443 1437 1431 1425 1420 1415 1411 1407 1403 1400 1394 1388 1385 1381 1378 1375 1372 1369 1366 1364 1363
1516 1515 1515 1513 1511 1508 1505 1502 1498 1495 1491 1487 1483 1478 1473 1469 1464 1460 1455 1451 1447 1442 1437 1432 1427 1421 1416 1411 1407 1403 1399 1396 1392 1385 1379 1377 1374 1371 1367 1364 1360 1358 1356
1511 1511 1510 1508 1506 1504 1501 1498 1495 1491 1487 1483 1479 1474 1469 1464 1459 1455 1450 1446 1441 1436 1432 1427 1422 1417 1412 1407 1403 1398 1395 1391 1387 1382 1376 1372 1369 1366 1362 1358 1355 1352 1350
1506 1506 1505 1504 1502 1500 1497 1494 1491 1487 1483 1479 1475 1470 1465 1460 1455 1450 1445 1441 1436 1431 1426 1422 1418 1414 1409 1404 1399 1395 1390 1386 1382 1377 1372 1368 1365 1362 1358 1353 1348 1346 1344
1500 1500 1500 1499 1497 1495 1493 1490 1487 1483 1479 1475 1471 1467 1462 1457 1451 1445 1440 1436 1431 1425 1421 1417 1414 1410 1406 1401 1396 1391 1386 1381 1377 1372 1368 1364 1360 1357 1354 1350 1346 1341 1340
1494 1495 1495 1494 1493 1491 1489 1486 1482 1479 1475 1472 1468 1463 1459 1454 1448 1443 1439 1432 1427 1421 1417 1413 1410 1406 1401 1397 1391 1387 1382 1377 1372 1368 1363 1359 1355 1353 1349 1346 1343 1340 1336
1489 1490 1490 1489 1488 1486 1484 1482 1478 1475 1471 1467 1464 1460 1455 1450 1445 1441 1435 1429 1423 1418 1414 1410 1406 1402 1397 1391 1386 1382 1377 1373 1369 1365 1359 1354 1350 1347 1345 1342 1339 1337 1333
1483 1484 1484 1484 1483 1482 1480 1477 1475 1471 1467 1463 1460 1456 1451 1447 1443 1438 1432 1426 1420 1415 1411 1407 1402 1398 1393 1388 1382 1377 1372 1368 1363 1359 1354 1349 1346 1343 1341 1338 1336 1332 1329
1476 1478 1479 1479 1478 1477 1475 1473 1470 1467 1463 1460 1456 1452 1448 1444 1440 1435 1429 1423 1418 1413 1408 1404 1400 1395 1390 1385 1379 1373 1368 1362 1357 1352 1348 1344 1341 1338 1337 1335 1332 1329 1326
1470 1472 1473 1473 1473 1472 1471 1469 1467 1464 1460 1456 1453 1449 1445 1441 1437 1432 1427 1421 1415 1410 1406 1401 1397 1393 1388 1383 1377 1371 1365 1359 1352 1346 1342 1338 1335 1332 1331 1330 1327 1326 1324
1464 1466 1467 1468 1468 1467 1466 1465 1463 1460 1457 1453 1449 1446 1442 1438 1434 1430 1426 1420 1414 1409 1403 1399 1394 1390 1386 1381 1376 1370 1364 1357 1350 1344 1339 1334 1331 1328 1325 1324 1323 1321 1320
1457 1459 1461 1462 1462 1462 1462 1461 1459 1457 1454 1450 1446 1442 1439 1435 1431 1428 1424 1419 1414 1408 1403 1397 1393 1389 1385 1379 1374 1369 1363 1355 1348 1343 1337 1332 1328 1324 1321 1319 1317 1316 1316
1450 1452 1455 1456 1457 1457 1457 1457 1455 1453 1450 1447 1443 1439 1435 1432 1429 1425 1421 1417 1412 1407 1402 1397 1393 1388 1383 1377 1373 1368 1361 1354 1348 1342 1336 1331 1326 1322 1318 1315 1314 1313 1313
1442 1446 1448 1450 1451 1452 1452 1452 1451 1450 1447 1445 1441 1437 1432 1429 1426 1422 1419 1414 1410 1406 1401 1397 1392 1387 1382 1377 1372 1366 1360 1355 1349 1342 1336 1331 1325 1320 1316 1313 1312 1311 1311
1435 1438 1441 1444 1445 1446 1447 1448 1447 1446 1444 1442 1438 1434 1430 1426 1424 1421 1418 1413 1409 1406 1401 1396 1391 1386 1381 1376 1371 1366 1361 1355 1349 1343 1337 1331 1325 1320 1316 1313 1311 1310 1310
1427 1430 1433 1437 1439 1441 1442 1443 1443 1443 1441 1439 1436 1433 1429 1425 1422 1419 1415 1412 1408 1405 1401 1396 1391 1386 1382 1377 1372 1367 1362 1356 1351 1345 1339 1333 1327 1322 1317 1314 1312 1311 1311
1419 1423 1426 1430 1432 1435 1437 1438 1439 1439 1438 1436 1434 1431 1428 1424 1421 1417 1414 1411 1407 1404 1400 1396 1392 1387 1383 1378 1373 1368 1364 1359 1354 1348 1342 1335 1330 1325 1320 1317 1314 1312 1311
1412 1416 1420 1423 1426 1429 1431 1433 1434 1435 1435 1433 1432 1429 1426 1423 1419 1416 1413 1410 1407 1404 1400 1396 1392 1388 1384 1380 1375 1370 1366 1361 1356 1351 1345 1339 1333 1328 1324 1320 1317 1315 1314
1405 1409 1413 1417 1420 1423 1426 1428 1429 1430 1431 1430 1429 1427 1425 1421 1418 1415 1412 1409 1406 1403 1400 1397 1393 1389 1385 1381 1377 1372 1368 1363 1358 1353 1348 1343 1337 1332 1328 1324 1321 1319 1317
1398 1403 1408 1412 1415 1418 1420 1423 1425 1426 1427 1427 1426 1425 1423 1420 1417 1414 1412 1409 1406 1403 1400 1397 1394 1390 1386 1382 1378 1374 1369 1365 1360 1356 1351 1346 1341 1336 1332 1328 1325 1322 1321
1389 1395 1401 1406 1409 1412 1415 1418 1420 1422 1423 1423 1423 1422 1420 1418 1415 1413 1411 1408 1406 1403 1401 1398 1394 1391 1387 1383 1379 1375 1371 1367 1363 1359 1355 1350 1345 1341 1336 1332 1329 1326 1324
1379 1386 1392 1398 1403 1407 1410 1413 1416 1418 1419 1420 1420 1419 1418 1416 1414 1412 1410 1408 1406 1403 1401 1398 1395 1392 1388 1384 1380 1377 1373 1369 1365 1362 1358 1354 1349 1345 1341 1337 1333 1330 1328
1370 1377 1384 1391 1397 1401 1405 1408 1411 1413 1415 1416 1416 1416 1415 1414 1412 1410 1408 1407 1405 1403 1401 1398 1396 1392 1389 1386 1382 1378 1375 1371 1368 1364 1361 1357 1353 1349 1345 1341 1338 1335 1333
1362 1368 1375 1382 1389 1394 1398 1402 1405 1408 1411 1412 1413 1413 1413 1412 1410 1409 1407 1405 1404 1402 1400 1398 1396 1393 1390 1387 1383 1380 1377 1373 1370 1367 1364 1361 1357 1354 1350 1346 1343 1341 1339
1353 1359 1366 1373 1380 1386 1391 1395 1399 1403 1405 1407 1409 1410 1410 1409 1408 1407 1405 1404 1402 1401 1399 1398 1396 1393 1390 1388 1384 1381 1378 1375 1372 1369 1367 1364 1361 1358 1355 1352 1349 1346 1344
1343 1351 1357 1365 1372 1378 1384 1388 1392 1396 1400 1402 1404 1406 1406 1406 1405 1404 1403 1402 1401 1399 1398 1397 1395 1393 1391 1388 1385 1383 1380 1377 1374 1371 1369 1367 1365 1362 1360 1357 1355 1352 1351